STARLINK-11447 [DTC] (62418 NORAD) Tracking and Keplerian Element Data

This shows tracking and keplerian element data for the satellite.

Feedback or suggestion? Click here.




ElementValue
Catalog62418
NameSTARLINK-11447 [DTC]
Epoch Orbit668
Epoch Day34.42485304
Epoch Year2025
RAAN54.5675
Inclination42.9979
Eccentricity0.0002456
Argument of Perigee279.0115
Mean Anonmoly81.0477
Mean Motion15.7785061
Decay Rate-8.05E-06
L11 62418U 24249K 25034.42485304 -.00000805 00000+0 -17506-5 0 9994
L22 62418 42.9979 54.5675 0002456 279.0115 81.0477 15.77850610 6684



Live tracking and technical data element details for STARLINK-11447 [DTC] (NORAD 62418). STARLINK-11447 [DTC] can be tracked NOW for your location showing map with azimuth and elevation plus other details from your city location.







IsCatalogInMostPopularTable: catalog: 62418, numindb: 12
Update: records affected: 1



GetName: 62418 STARLINK-11447 [DTC]

Hit Count: updated at: Mon, 19 May 2025 02:32:44 GMT